| time (UTC) | temp C | wind direction | speed KPH | gust KPH | rain 1hr cm | rain 24hr cm | rain mn cm | humidity % | barometer mb |
| 20260507040416 | 20 | 266 | 1.6 | 4.8 | 0.00 | 0.00 | 0.00 | 58 | 1017.4 |
| 20260507035947 | 20 | 137 | 1.6 | 6.4 | 0.00 | 0.00 | 0.00 | 57 | 1017.2 |
| 20260507035922 | 20 | 251 | 1.6 | 6.4 | 0.00 | 0.00 | 0.00 | 58 | 1017.4 |
| 20260507034909 | 20 | 221 | 1.6 | 6.4 | 0.00 | 0.00 | 0.00 | 57 | 1017.2 |
| 20260507034411 | 20 | 196 | 3.2 | 6.4 | 0.00 | 0.00 | 0.00 | 57 | 1017.1 |
| 20260507033911 | 20 | 169 | 1.6 | 4.8 | 0.00 | 0.00 | 0.00 | 57 | 1017.0 |
| 20260507033409 | 21 | 325 | 1.6 | 4.8 | 0.00 | 0.00 | 0.00 | 56 | 1017.0 |
| 20260507032911 | 21 | 279 | 1.6 | 8.0 | 0.00 | 0.00 | 0.00 | 56 | 1016.9 |
| 20260507032410 | 21 | 282 | 3.2 | 11.3 | 0.00 | 0.00 | 0.00 | 55 | 1016.7 |
| 20260507031932 | 21 | 153 | 1.6 | 9.7 | 0.00 | 0.00 | 0.00 | 55 | 1016.5 |
| 20260507031914 | 21 | 93 | 3.2 | 11.3 | 0.00 | 0.00 | 0.00 | 55 | 1016.7 |
| 20260507030909 | 21 | 282 | 3.2 | 8.0 | 0.00 | 0.00 | 0.00 | 54 | 1016.5 |
| 20260507030407 | 21 | 207 | 3.2 | 8.0 | 0.00 | 0.00 | 0.00 | 53 | 1016.4 |
| 20260507025907 | 22 | 244 | 3.2 | 8.0 | 0.00 | 0.00 | 0.00 | 53 | 1016.4 |
| 20260507025407 | 22 | 254 | 1.6 | 6.4 | 0.00 | 0.00 | 0.00 | 52 | 1016.4 |
| 20260507024905 | 22 | 265 | 1.6 | 6.4 | 0.00 | 0.00 | 0.00 | 51 | 1016.2 |
| 20260507024406 | 22 | 196 | 1.6 | 6.4 | 0.00 | 0.00 | 0.00 | 51 | 1016.3 |
| 20260507023905 | 22 | 298 | 1.6 | 9.7 | 0.00 | 0.00 | 0.00 | 51 | 1016.2 |
| 20260507023405 | 23 | 316 | 1.6 | 9.7 | 0.00 | 0.00 | 0.00 | 50 | 1016.1 |
| 20260507022904 | 23 | 255 | 3.2 | 9.7 | 0.00 | 0.00 | 0.00 | 49 | 1016.1 |
| 20260507022403 | 23 | 149 | 3.2 | 9.7 | 0.00 | 0.00 | 0.00 | 49 | 1016.1 |
| 20260507021903 | 23 | 85 | 3.2 | 8.0 | 0.00 | 0.00 | 0.00 | 48 | 1015.9 |
| 20260507021404 | 23 | 56 | 3.2 | 8.0 | 0.00 | 0.00 | 0.00 | 47 | 1015.9 |
| 20260507020904 | 24 | 212 | 3.2 | 8.0 | 0.00 | 0.00 | 0.00 | 47 | 1015.9 |
| 20260507020406 | 24 | 196 | 3.2 | 9.7 | 0.00 | 0.00 | 0.00 | 46 | 1015.8 |
| 20260507020402 | 25 | 51 | 3.2 | 12.9 | 0.00 | 0.00 | 0.00 | 45 | 1015.8 |
| 20260507020351 | 25 | 221 | 3.2 | 12.9 | 0.00 | 0.00 | 0.00 | 45 | 1015.8 |
| 20260507014903 | 25 | 250 | 3.2 | 12.9 | 0.00 | 0.00 | 0.00 | 44 | 1015.7 |
| 20260507014405 | 25 | 311 | 3.2 | 9.7 | 0.00 | 0.00 | 0.00 | 43 | 1015.6 |
| 20260507013935 | 25 | 241 | 3.2 | 14.5 | 0.00 | 0.00 | 0.00 | 43 | 1015.6 |
| 20260507013910 | 25 | 265 | 3.2 | 11.3 | 0.00 | 0.00 | 0.00 | 43 | 1015.7 |
| 20260507012902 | 26 | 93 | 3.2 | 14.5 | 0.00 | 0.00 | 0.00 | 42 | 1015.5 |
| 20260507012403 | 26 | 228 | 3.2 | 8.0 | 0.00 | 0.00 | 0.00 | 41 | 1015.5 |
| 20260507011936 | 26 | 309 | 3.2 | 12.9 | 0.00 | 0.00 | 0.00 | 39 | 1015.4 |
| 20260507011910 | 26 | 213 | 3.2 | 9.7 | 0.00 | 0.00 | 0.00 | 40 | 1015.5 |
| 20260507010903 | 26 | 291 | 6.4 | 12.9 | 0.00 | 0.00 | 0.00 | 39 | 1015.4 |
| 20260507010405 | 26 | 22 | 3.2 | 16.1 | 0.00 | 0.00 | 0.00 | 38 | 1015.4 |
| 20260507005904 | 26 | 221 | 3.2 | 16.1 | 0.00 | 0.00 | 0.00 | 39 | 1015.4 |
| 20260507005440 | 26 | 212 | 4.8 | 12.9 | 0.00 | 0.00 | 0.00 | 38 | 1015.3 |
| 20260507005410 | 26 | 178 | 4.8 | 12.9 | 0.00 | 0.00 | 0.00 | 38 | 1015.4 |
| 20260507004404 | 26 | 144 | 3.2 | 9.7 | 0.00 | 0.00 | 0.00 | 38 | 1015.3 |
| 20260507003903 | 26 | 137 | 3.2 | 9.7 | 0.00 | 0.00 | 0.00 | 38 | 1015.2 |
| 20260507003403 | 27 | 137 | 3.2 | 9.7 | 0.00 | 0.00 | 0.00 | 37 | 1015.2 |
| 20260507002905 | 27 | 248 | 3.2 | 9.7 | 0.00 | 0.00 | 0.00 | 38 | 1015.3 |
| 20260507002430 | 27 | 248 | 3.2 | 17.7 | 0.00 | 0.00 | 0.00 | 37 | 1015.2 |
| 20260507002408 | 27 | 212 | 1.6 | 8.0 | 0.00 | 0.00 | 0.00 | 38 | 1015.2 |
| 20260507001442 | 27 | 74 | 4.8 | 16.1 | 0.00 | 0.00 | 0.00 | 37 | 1015.1 |
| 20260507001412 | 27 | 232 | 3.2 | 17.7 | 0.00 | 0.00 | 0.00 | 37 | 1015.1 |
| 20260507000402 | 27 | 329 | 3.2 | 16.1 | 0.00 | 0.00 | 0.00 | 37 | 1015.0 |
| 20260506235904 | 27 | 171 | 3.2 | 8.0 | 0.00 | 0.00 | 0.00 | 36 | 1015.0 |
| 20260506235405 | 27 | 270 | 3.2 | 14.5 | 0.00 | 0.00 | 0.00 | 36 | 1015.2 |
| 20260506234956 | 27 | 328 | 3.2 | 11.3 | 0.00 | 0.00 | 0.00 | 36 | 1015.1 |
| 20260506234945 | 27 | 286 | 6.4 | 11.3 | 0.00 | 0.00 | 0.00 | 36 | 1015.1 |
| 20260506234918 | 27 | 338 | 3.2 | 14.5 | 0.00 | 0.00 | 0.00 | 36 | 1015.0 |
| 20260506233404 | 27 | 221 | 3.2 | 24.1 | 0.00 | 0.00 | 0.00 | 36 | 1015.2 |
| 20260506232906 | 27 | 200 | 9.7 | 24.1 | 0.00 | 0.00 | 0.00 | 36 | 1015.2 |
| 20260506232404 | 27 | 187 | 6.4 | 12.9 | 0.00 | 0.00 | 0.00 | 35 | 1015.2 |
| 20260506231904 | 27 | 139 | 3.2 | 11.3 | 0.00 | 0.00 | 0.00 | 35 | 1015.3 |
| 20260506231405 | 27 | 190 | 3.2 | 8.0 | 0.00 | 0.00 | 0.00 | 35 | 1015.4 |
| 20260506230908 | 27 | 51 | 3.2 | 12.9 | 0.00 | 0.00 | 0.00 | 35 | 1015.3 |
| 20260506230405 | 27 | 188 | 6.4 | 12.9 | 0.00 | 0.00 | 0.00 | 34 | 1015.4 |
| 20260506230337 | 27 | 120 | 4.8 | 12.9 | 0.00 | 0.00 | 0.00 | 34 | 1015.3 |
| 20260506225405 | 27 | 146 | 3.2 | 12.9 | 0.00 | 0.00 | 0.00 | 34 | 1015.4 |
| 20260506224952 | 28 | 265 | 3.2 | 14.5 | 0.00 | 0.00 | 0.00 | 33 | 1015.6 |
| 20260506224920 | 27 | 338 | 6.4 | 16.1 | 0.00 | 0.00 | 0.00 | 34 | 1015.4 |
| 20260506224408 | 28 | 202 | 6.4 | 16.1 | 0.00 | 0.00 | 0.00 | 34 | 1015.4 |
| 20260506223442 | 28 | 317 | 4.8 | 9.7 | 0.00 | 0.00 | 0.00 | 33 | 1015.7 |
| 20260506223433 | 28 | 230 | 4.8 | 16.1 | 0.00 | 0.00 | 0.00 | 34 | 1015.6 |
| 20260506223410 | 28 | 241 | 3.2 | 14.5 | 0.00 | 0.00 | 0.00 | 34 | 1015.5 |
| 20260506221902 | 28 | 313 | 6.4 | 16.1 | 0.00 | 0.00 | 0.00 | 34 | 1015.8 |
| 20260506221359 | 28 | 288 | 4.8 | 12.9 | 0.00 | 0.00 | 0.00 | 34 | 1015.7 |
| 20260506220901 | 28 | 68 | 3.2 | 6.4 | 0.00 | 0.00 | 0.00 | 35 | 1015.7 |
| 20260506220400 | 27 | 201 | 3.2 | 8.0 | 0.00 | 0.00 | 0.00 | 35 | 1015.8 |
| 20260506215927 | 27 | 221 | 3.2 | 11.3 | 0.00 | 0.00 | 0.00 | 35 | 1015.9 |
| 20260506215908 | 27 | 341 | 3.2 | 9.7 | 0.00 | 0.00 | 0.00 | 35 | 1015.9 |
| 20260506214900 | 27 | 221 | 3.2 | 12.9 | 0.00 | 0.00 | 0.00 | 35 | 1016.0 |
| 20260506214402 | 27 | 286 | 4.8 | 12.9 | 0.00 | 0.00 | 0.00 | 36 | 1016.1 |
| 20260506213929 | 27 | 257 | 4.8 | 9.7 | 0.00 | 0.00 | 0.00 | 35 | 1016.3 |
| 20260506213907 | 27 | 229 | 3.2 | 11.3 | 0.00 | 0.00 | 0.00 | 34 | 1016.2 |
| 20260506212901 | 27 | 284 | 3.2 | 14.5 | 0.00 | 0.00 | 0.00 | 35 | 1016.4 |
| 20260506212400 | 27 | 164 | 6.4 | 14.5 | 0.00 | 0.00 | 0.00 | 36 | 1016.6 |
| 20260506211900 | 26 | 178 | 4.8 | 11.3 | 0.00 | 0.00 | 0.00 | 37 | 1016.6 |
| 20260506211354 | 26 | 74 | 3.2 | 11.3 | 0.00 | 0.00 | 0.00 | 36 | 1016.7 |
| 20260506210855 | 26 | 298 | 4.8 | 12.9 | 0.00 | 0.00 | 0.00 | 35 | 1016.7 |
| 20260506210354 | 26 | 279 | 6.4 | 12.9 | 0.00 | 0.00 | 0.00 | 37 | 1016.9 |
| 20260506210341 | 26 | 334 | 3.2 | 11.3 | 0.00 | 0.00 | 0.00 | 38 | 1016.9 |
| 20260506205359 | 26 | 227 | 3.2 | 11.3 | 0.00 | 0.00 | 0.00 | 37 | 1016.9 |
| 20260506204936 | 25 | 39 | 3.2 | 12.9 | 0.00 | 0.00 | 0.00 | 38 | 1017.0 |
| 20260506204909 | 25 | 334 | 3.2 | 11.3 | 0.00 | 0.00 | 0.00 | 37 | 1016.7 |
| 20260506204359 | 25 | 32 | 4.8 | 11.3 | 0.00 | 0.00 | 0.00 | 38 | 1017.0 |
| 20260506203355 | 25 | 325 | 4.8 | 14.5 | 0.00 | 0.00 | 0.00 | 38 | 1017.0 |
| 20260506202857 | 26 | 340 | 4.8 | 17.7 | 0.00 | 0.00 | 0.00 | 37 | 1017.1 |
| 20260506202357 | 26 | 328 | 6.4 | 17.7 | 0.00 | 0.00 | 0.00 | 38 | 1017.1 |
| 20260506201854 | 26 | 256 | 3.2 | 8.0 | 0.00 | 0.00 | 0.00 | 38 | 1017.1 |
| 20260506201353 | 25 | 172 | 3.2 | 11.3 | 0.00 | 0.00 | 0.00 | 37 | 1017.2 |
| 20260506200854 | 25 | 111 | 3.2 | 11.3 | 0.00 | 0.00 | 0.00 | 38 | 1017.4 |
| 20260506200354 | 25 | 157 | 3.2 | 9.7 | 0.00 | 0.00 | 0.00 | 39 | 1017.5 |
| 20260506195854 | 24 | 51 | 3.2 | 9.7 | 0.00 | 0.00 | 0.00 | 39 | 1017.5 |
| 20260506195353 | 24 | 38 | 3.2 | 9.7 | 0.00 | 0.00 | 0.00 | 39 | 1017.6 |
| 20260506194852 | 24 | 172 | 6.4 | 14.5 | 0.00 | 0.00 | 0.00 | 39 | 1017.6 |
| 20260506194421 | 25 | 153 | 4.8 | 14.5 | 0.00 | 0.00 | 0.00 | 39 | 1017.8 |
| 20260506194357 | 24 | 185 | 6.4 | 14.5 | 0.00 | 0.00 | 0.00 | 39 | 1017.6 |
| 20260506193350 | 25 | 171 | 4.8 | 14.5 | 0.00 | 0.00 | 0.00 | 39 | 1017.8 |
| 20260506192851 | 24 | 314 | 3.2 | 9.7 | 0.00 | 0.00 | 0.00 | 39 | 1017.8 |
| 20260506192350 | 24 | 232 | 3.2 | 11.3 | 0.00 | 0.00 | 0.00 | 40 | 1017.8 |
| 20260506191852 | 23 | 9 | 6.4 | 11.3 | 0.00 | 0.00 | 0.00 | 41 | 1018.0 |
| 20260506191352 | 23 | 336 | 3.2 | 11.3 | 0.00 | 0.00 | 0.00 | 41 | 1018.1 |
| 20260506190914 | 23 | 332 | 4.8 | 11.3 | 0.00 | 0.00 | 0.00 | 42 | 1018.1 |
| 20260506190854 | 23 | 248 | 3.2 | 11.3 | 0.00 | 0.00 | 0.00 | 42 | 1018.1 |
| 20260506185929 | 23 | 141 | 4.8 | 8.0 | 0.00 | 0.00 | 0.00 | 41 | 1018.3 |
| 20260506185858 | 23 | 41 | 4.8 | 8.0 | 0.00 | 0.00 | 0.00 | 41 | 1018.2 |
| 20260506185348 | 23 | 196 | 3.2 | 8.0 | 0.00 | 0.00 | 0.00 | 41 | 1018.2 |
| 20260506184345 | 22 | 93 | 1.6 | 8.0 | 0.00 | 0.00 | 0.00 | 43 | 1018.4 |
| 20260506183846 | 22 | 146 | 3.2 | 11.3 | 0.00 | 0.00 | 0.00 | 42 | 1018.3 |
| 20260506183345 | 22 | 255 | 4.8 | 11.3 | 0.00 | 0.00 | 0.00 | 42 | 1018.5 |
| 20260506182847 | 22 | 178 | 1.6 | 8.0 | 0.00 | 0.00 | 0.00 | 43 | 1018.5 |
| 20260506182345 | 22 | 265 | 3.2 | 14.5 | 0.00 | 0.00 | 0.00 | 45 | 1018.6 |
| 20260506181924 | 21 | 196 | 3.2 | 11.3 | 0.00 | 0.00 | 0.00 | 44 | 1018.7 |
| 20260506181855 | 21 | 51 | 4.8 | 14.5 | 0.00 | 0.00 | 0.00 | 44 | 1018.6 |
| 20260506180845 | 21 | 57 | 4.8 | 11.3 | 0.00 | 0.00 | 0.00 | 44 | 1018.8 |
| 20260506180341 | 22 | 195 | 4.8 | 9.7 | 0.00 | 0.00 | 0.00 | 43 | 1018.7 |
| 20260506175843 | 21 | 239 | 3.2 | 9.7 | 0.00 | 0.00 | 0.00 | 45 | 1018.7 |
| 20260506175341 | 21 | 59 | 1.6 | 9.7 | 0.00 | 0.00 | 0.00 | 46 | 1018.7 |
| 20260506174914 | 21 | 178 | 1.6 | 6.4 | 0.00 | 0.00 | 0.00 | 46 | 1018.7 |
| 20260506174850 | 21 | 137 | 4.8 | 9.7 | 0.00 | 0.00 | 0.00 | 45 | 1018.7 |
| 20260506173840 | 20 | 26 | 3.2 | 6.4 | 0.00 | 0.00 | 0.00 | 48 | 1018.7 |
| 20260506173341 | 20 | 51 | 1.6 | 8.0 | 0.00 | 0.00 | 0.00 | 47 | 1018.8 |
| 20260506172842 | 20 | 183 | 3.2 | 12.9 | 0.00 | 0.00 | 0.00 | 48 | 1018.7 |
| 20260506172354 | 20 | 196 | 4.8 | 9.7 | 0.00 | 0.00 | 0.00 | 48 | 1018.8 |
| 20260506172341 | 20 | 301 | 4.8 | 12.9 | 0.00 | 0.00 | 0.00 | 48 | 1018.8 |
| 20260506171337 | 20 | 93 | 1.6 | 11.3 | 0.00 | 0.00 | 0.00 | 48 | 1018.8 |
| 20260506170902 | 19 | 212 | 3.2 | 8.0 | 0.00 | 0.00 | 0.00 | 50 | 1018.8 |
| 20260506170842 | 20 | 301 | 1.6 | 11.3 | 0.00 | 0.00 | 0.00 | 50 | 1018.8 |
| 20260506165916 | 19 | 344 | 3.2 | 9.7 | 0.00 | 0.00 | 0.00 | 51 | 1018.8 |
| 20260506165846 | 19 | 162 | 3.2 | 8.0 | 0.00 | 0.00 | 0.00 | 50 | 1018.8 |
| 20260506164834 | 18 | 105 | 3.2 | 9.7 | 0.00 | 0.00 | 0.00 | 52 | 1018.9 |
| 20260506164335 | 18 | 172 | 3.2 | 9.7 | 0.00 | 0.00 | 0.00 | 51 | 1018.8 |
| 20260506163837 | 18 | 133 | 3.2 | 8.0 | 0.00 | 0.00 | 0.00 | 52 | 1018.8 |
| 20260506163336 | 18 | 178 | 3.2 | 6.4 | 0.00 | 0.00 | 0.00 | 52 | 1018.9 |
| 20260506162834 | 18 | 31 | 1.6 | 4.8 | 0.00 | 0.00 | 0.00 | 52 | 1018.9 |
| 20260506162333 | 18 | 93 | 1.6 | 6.4 | 0.00 | 0.00 | 0.00 | 54 | 1018.9 |
| 20260506161833 | 18 | 234 | 3.2 | 4.8 | 0.00 | 0.00 | 0.00 | 54 | 1018.8 |
| 20260506161332 | 18 | 273 | 3.2 | 6.4 | 0.00 | 0.00 | 0.00 | 56 | 1018.8 |
| 20260506160833 | 17 | 291 | 1.6 | 6.4 | 0.00 | 0.00 | 0.00 | 56 | 1018.8 |
| 20260506160332 | 17 | 178 | 1.6 | 4.8 | 0.00 | 0.00 | 0.00 | 57 | 1018.7 |
| 20260506155832 | 17 | 344 | 3.2 | 6.4 | 0.00 | 0.00 | 0.00 | 59 | 1018.7 |
| 20260506155405 | 16 | 232 | 1.6 | 6.4 | 0.00 | 0.00 | 0.00 | 60 | 1018.7 |
| 20260506155354 | 16 | 133 | 3.2 | 6.4 | 0.00 | 0.00 | 0.00 | 60 | 1018.7 |
| 20260506155337 | 17 | 221 | 1.6 | 6.4 | 0.00 | 0.00 | 0.00 | 60 | 1018.7 |
| 20260506153833 | 16 | 24 | 1.6 | 6.4 | 0.00 | 0.00 | 0.00 | 62 | 1018.7 |
| 20260506153333 | 16 | 128 | 3.2 | 6.4 | 0.00 | 0.00 | 0.00 | 62 | 1018.7 |
| 20260506152831 | 15 | 38 | 1.6 | 6.4 | 0.00 | 0.00 | 0.00 | 63 | 1018.7 |
| 20260506152333 | 15 | 146 | 3.2 | 6.4 | 0.00 | 0.00 | 0.00 | 65 | 1018.7 |
| 20260506151831 | 15 | 178 | 3.2 | 6.4 | 0.00 | 0.00 | 0.00 | 65 | 1018.7 |
| 20260506151331 | 15 | 205 | 1.6 | 6.4 | 0.00 | 0.00 | 0.00 | 66 | 1018.7 |
| 20260506150831 | 14 | 157 | 1.6 | 6.4 | 0.00 | 0.00 | 0.00 | 68 | 1018.7 |
| 20260506150332 | 14 | 221 | 1.6 | 6.4 | 0.00 | 0.00 | 0.00 | 70 | 1018.8 |
| 20260506145832 | 13 | 205 | 1.6 | 6.4 | 0.00 | 0.00 | 0.00 | 71 | 1018.7 |
| 20260506145416 | 12 | 239 | 1.6 | 3.2 | 0.00 | 0.00 | 0.00 | 75 | 1018.8 |
| 20260506145408 | 12 | 120 | 1.6 | 4.8 | 0.00 | 0.08 | 0.00 | 77 | 1018.9 |
| 20260506145340 | 13 | 205 | 1.6 | 3.2 | 0.00 | 0.00 | 0.00 | 73 | 1018.8 |
| 20260506143833 | 12 | 111 | 1.6 | 6.4 | 0.00 | 0.13 | 0.00 | 78 | 1018.8 |
| 20260506143332 | 11 | 93 | 1.6 | 6.4 | 0.00 | 0.15 | 0.00 | 80 | 1018.7 |
| 20260506142834 | 11 | 248 | 1.6 | 3.2 | 0.00 | 0.15 | 0.00 | 82 | 1018.7 |
| 20260506142401 | 11 | 26 | 1.6 | 3.2 | 0.00 | 0.18 | 0.00 | 83 | 1018.7 |
| 20260506142337 | 11 | 265 | 1.6 | 3.2 | 0.00 | 0.15 | 0.00 | 83 | 1018.7 |
| 20260506141332 | 10 | 325 | 1.6 | 3.2 | 0.00 | 0.18 | 0.00 | 84 | 1018.7 |
| 20260506140954 | 10 | 309 | 0.0 | 3.2 | 0.00 | 0.18 | 0.00 | 85 | 1018.6 |
| 20260506140859 | 10 | 9 | 1.6 | 3.2 | 0.00 | 0.18 | 0.00 | 84 | 1018.7 |
| 20260506135831 | 10 | 282 | 1.6 | 3.2 | 0.00 | 0.18 | 0.00 | 85 | 1018.6 |
| 20260506135329 | 9 | 26 | 1.6 | 3.2 | 0.00 | 0.18 | 0.00 | 84 | 1018.6 |
| 20260506134830 | 9 | 30 | 1.6 | 3.2 | 0.00 | 0.18 | 0.00 | 84 | 1018.6 |
| 20260506134331 | 9 | 51 | 1.6 | 3.2 | 0.00 | 0.18 | 0.00 | 84 | 1018.5 |
| 20260506133829 | 9 | 44 | 1.6 | 3.2 | 0.00 | 0.18 | 0.00 | 83 | 1018.5 |
| 20260506133331 | 8 | 34 | 0.0 | 1.6 | 0.00 | 0.20 | 0.00 | 83 | 1018.5 |
| 20260506132830 | 8 | 221 | 0.0 | 3.2 | 0.00 | 0.20 | 0.00 | 83 | 1018.3 |
| 20260506132328 | 8 | 72 | 0.0 | 3.2 | 0.00 | 0.20 | 0.00 | 82 | 1018.2 |
| 20260506131853 | 8 | 51 | 0.0 | 1.6 | 0.00 | 0.23 | 0.00 | 81 | 1018.2 |
| 20260506131833 | 8 | 51 | 1.6 | 3.2 | 0.00 | 0.20 | 0.00 | 82 | 1018.2 |
| 20260506130827 | 9 | 34 | 0.0 | 1.6 | 0.00 | 0.25 | 0.00 | 81 | 1018.1 |
| 20260506130326 | 9 | 9 | 0.0 | 1.6 | 0.00 | 0.25 | 0.00 | 81 | 1018.1 |
| 20260506125822 | 9 | 9 | 0.0 | 1.6 | 0.00 | 0.28 | 0.00 | 80 | 1018.1 |
| 20260506125322 | 9 | 9 | 0.0 | 3.2 | 0.00 | 0.33 | 0.00 | 80 | 1017.9 |
| 20260506124822 | 9 | 319 | 1.6 | 3.2 | 0.00 | 0.41 | 0.00 | 80 | 1018.0 |
| 20260506124319 | 9 | 9 | 0.0 | 3.2 | 0.00 | 0.48 | 0.00 | 79 | 1017.9 |
| 20260506123819 | 10 | 26 | 0.0 | 3.2 | 0.00 | 0.51 | 0.00 | 79 | 1017.9 |
| 20260506123316 | 10 | 273 | 1.6 | 1.6 | 0.00 | 0.58 | 0.00 | 79 | 1017.9 |
| 20260506122815 | 10 | 291 | 0.0 | 1.6 | 0.00 | 0.61 | 0.00 | 79 | 1017.8 |
| 20260506122316 | 10 | 221 | 0.0 | 1.6 | 0.00 | 0.64 | 0.00 | 78 | 1017.7 |
| 20260506121816 | 10 | 162 | 0.0 | 4.8 | 0.00 | 0.66 | 0.00 | 78 | 1017.8 |
| 20260506121316 | 10 | 51 | 0.0 | 4.8 | 0.00 | 0.66 | 0.00 | 78 | 1017.7 |
| 20260506120812 | 10 | 64 | 1.6 | 4.8 | 0.00 | 0.66 | 0.00 | 78 | 1017.9 |
| 20260506120311 | 10 | 51 | 1.6 | 4.8 | 0.00 | 0.66 | 0.00 | 78 | 1017.8 |
| 20260506115810 | 10 | 17 | 1.6 | 4.8 | 0.00 | 0.66 | 0.00 | 79 | 1017.8 |
| 20260506115309 | 10 | 93 | 1.6 | 4.8 | 0.00 | 0.66 | 0.00 | 79 | 1017.8 |
| 20260506114808 | 10 | 41 | 3.2 | 4.8 | 0.00 | 0.69 | 0.00 | 79 | 1017.8 |
| 20260506114308 | 10 | 24 | 1.6 | 3.2 | 0.00 | 0.69 | 0.00 | 78 | 1017.8 |
| 20260506113807 | 10 | 9 | 1.6 | 3.2 | 0.00 | 0.69 | 0.00 | 78 | 1017.8 |
| 20260506113309 | 10 | 44 | 1.6 | 3.2 | 0.00 | 0.69 | 0.00 | 78 | 1017.8 |
| 20260506112806 | 10 | 9 | 1.6 | 3.2 | 0.00 | 0.69 | 0.00 | 78 | 1017.8 |
| 20260506112328 | 10 | 22 | 1.6 | 4.8 | 0.00 | 0.69 | 0.00 | 77 | 1017.8 |
| 20260506112308 | 10 | 41 | 1.6 | 4.8 | 0.00 | 0.69 | 0.00 | 77 | 1017.8 |
| 20260506111306 | 10 | 9 | 1.6 | 3.2 | 0.00 | 0.69 | 0.00 | 77 | 1017.7 |
| 20260506110803 | 10 | 26 | 1.6 | 3.2 | 0.00 | 0.69 | 0.00 | 77 | 1017.8 |
| 20260506110304 | 10 | 9 | 1.6 | 3.2 | 0.00 | 0.69 | 0.00 | 77 | 1017.8 |
| 20260506105804 | 10 | 9 | 1.6 | 3.2 | 0.00 | 0.69 | 0.00 | 77 | 1017.8 |
| 20260506105305 | 10 | 51 | 1.6 | 3.2 | 0.00 | 0.69 | 0.00 | 76 | 1017.7 |
| 20260506104807 | 10 | 51 | 0.0 | 1.6 | 0.00 | 0.69 | 0.00 | 76 | 1017.7 |
| 20260506104307 | 10 | 93 | 0.0 | 1.6 | 0.00 | 0.69 | 0.00 | 76 | 1017.8 |
| 20260506103804 | 11 | 93 | 0.0 | 3.2 | 0.00 | 0.69 | 0.00 | 76 | 1017.7 |
| 20260506103349 | 11 | 28 | 3.2 | 4.8 | 0.00 | 0.69 | 0.00 | 76 | 1017.7 |
| 20260506103318 | 11 | 51 | 1.6 | 4.8 | 0.00 | 0.69 | 0.00 | 76 | 1017.7 |
| 20260506102810 | 11 | 46 | 1.6 | 4.8 | 0.00 | 0.69 | 0.00 | 76 | 1017.7 |
| 20260506101803 | 11 | 51 | 1.6 | 4.8 | 0.00 | 0.69 | 0.00 | 76 | 1017.7 |
| 20260506101303 | 11 | 30 | 1.6 | 3.2 | 0.00 | 0.69 | 0.00 | 75 | 1017.7 |
| 20260506100803 | 11 | 57 | 1.6 | 3.2 | 0.00 | 0.69 | 0.00 | 75 | 1017.7 |
| 20260506100301 | 11 | 309 | 1.6 | 3.2 | 0.00 | 0.69 | 0.00 | 75 | 1017.8 |
| 20260506100236 | 11 | 41 | 1.6 | 3.2 | 0.00 | 0.69 | 0.00 | 74 | 1017.7 |
| 20260506095750 | 11 | 9 | 3.2 | 4.8 | 0.00 | 0.69 | 0.00 | 74 | 1017.7 |
| 20260506094802 | 11 | 28 | 1.6 | 4.8 | 0.00 | 0.69 | 0.00 | 74 | 1017.7 |
| 20260506094756 | 11 | 22 | 1.6 | 4.8 | 0.00 | 0.69 | 0.00 | 74 | 1017.8 |
| 20260506093829 | 11 | 22 | 1.6 | 6.4 | 0.00 | 0.69 | 0.00 | 73 | 1017.9 |
| 20260506093758 | 11 | 340 | 3.2 | 4.8 | 0.00 | 0.69 | 0.00 | 73 | 1017.8 |
| 20260506093458 | 11 | 341 | 1.6 | 4.8 | 0.00 | 0.69 | 0.00 | 73 | 1017.8 |
| 20260506092252 | 11 | 15 | 4.8 | 6.4 | 0.00 | 0.69 | 0.00 | 73 | 1017.6 |
| 20260506091821 | 12 | 9 | 1.6 | 4.8 | 0.00 | 0.69 | 0.00 | 73 | 1017.7 |
| 20260506091759 | 12 | 319 | 3.2 | 4.8 | 0.00 | 0.69 | 0.00 | 73 | 1017.7 |
| 20260506090750 | 12 | 51 | 3.2 | 4.8 | 0.00 | 0.69 | 0.00 | 73 | 1017.6 |
| 20260506090253 | 12 | 30 | 1.6 | 3.2 | 0.00 | 0.69 | 0.00 | 72 | 1017.8 |
| 20260506085743 | 12 | 212 | 0.0 | 1.6 | 0.00 | 0.69 | 0.00 | 72 | 1017.8 |
| 20260506085243 | 12 | 178 | 0.0 | 3.2 | 0.00 | 0.69 | 0.00 | 71 | 1017.9 |
| 20260506084742 | 12 | 9 | 0.0 | 4.8 | 0.00 | 0.69 | 0.00 | 71 | 1017.9 |
| 20260506084241 | 12 | 338 | 3.2 | 6.4 | 0.00 | 0.69 | 0.00 | 72 | 1017.9 |
| 20260506083737 | 12 | 16 | 3.2 | 8.0 | 0.00 | 0.69 | 0.00 | 72 | 1017.9 |
| 20260506083234 | 12 | 26 | 4.8 | 8.0 | 0.00 | 0.69 | 0.00 | 72 | 1018.0 |
| 20260506082757 | 12 | 32 | 3.2 | 6.4 | 0.00 | 0.69 | 0.00 | 72 | 1018.1 |
| 20260506082740 | 12 | 18 | 3.2 | 8.0 | 0.00 | 0.69 | 0.00 | 72 | 1018.1 |
| 20260506081735 | 12 | 22 | 1.6 | 8.0 | 0.00 | 0.69 | 0.00 | 72 | 1018.1 |
| 20260506081234 | 12 | 38 | 3.2 | 9.7 | 0.00 | 0.69 | 0.00 | 72 | 1018.2 |
| 20260506080734 | 12 | 41 | 3.2 | 9.7 | 0.00 | 0.69 | 0.00 | 73 | 1018.1 |
| 20260506080233 | 12 | 24 | 3.2 | 8.0 | 0.00 | 0.69 | 0.00 | 72 | 1018.1 |
| 20260506073230 | 12 | 24 | 3.2 | 4.8 | 0.00 | 0.69 | 0.00 | 72 | 1018.2 |
| 20260506072751 | 12 | 26 | 1.6 | 4.8 | 0.00 | 0.69 | 0.00 | 72 | 1018.3 |
| 20260506072731 | 12 | 344 | 3.2 | 4.8 | 0.00 | 0.69 | 0.00 | 72 | 1018.3 |
| 20260506071728 | 12 | 22 | 1.6 | 6.4 | 0.00 | 0.69 | 0.00 | 71 | 1018.3 |
| 20260506071229 | 12 | 30 | 3.2 | 6.4 | 0.00 | 0.69 | 0.00 | 71 | 1018.3 |
| 20260506070726 | 12 | 15 | 3.2 | 6.4 | 0.00 | 0.69 | 0.00 | 71 | 1018.2 |
| 20260506070229 | 12 | 344 | 1.6 | 4.8 | 0.00 | 0.69 | 0.00 | 70 | 1018.2 |
| 20260506062220 | 13 | 9 | 3.2 | 6.4 | 0.00 | 0.69 | 0.69 | 69 | 1017.8 |
| 20260506061719 | 13 | 342 | 3.2 | 6.4 | 0.00 | 0.69 | 0.69 | 69 | 1017.7 |
| 20260506061221 | 13 | 15 | 1.6 | 4.8 | 0.00 | 0.69 | 0.69 | 69 | 1017.7 |
| 20260506060721 | 13 | 26 | 3.2 | 3.2 | 0.00 | 0.69 | 0.69 | 68 | 1017.7 |
| 20260506060220 | 13 | 9 | 1.6 | 3.2 | 0.00 | 0.69 | 0.69 | 68 | 1017.6 |
| 20260506050715 | 15 | 292 | 0.0 | 4.8 | 0.00 | 0.69 | 0.69 | 61 | 1017.2 |
| 20260506050216 | 15 | 279 | 1.6 | 3.2 | 0.00 | 0.69 | 0.69 | 60 | 1017.0 |
| 20260506044212 | 15 | 19 | 1.6 | 12.9 | 0.00 | 0.69 | 0.69 | 58 | 1016.6 |
| 20260506043714 | 15 | 316 | 3.2 | 9.7 | 0.00 | 0.69 | 0.69 | 58 | 1016.5 |
| 20260506043214 | 15 | 257 | 4.8 | 6.4 | 0.00 | 0.69 | 0.69 | 57 | 1016.5 |
| 20260506042713 | 15 | 293 | 3.2 | 6.4 | 0.00 | 0.69 | 0.69 | 57 | 1016.4 |
| 20260506042213 | 16 | 275 | 3.2 | 11.3 | 0.00 | 0.69 | 0.69 | 57 | 1016.4 |
| 20260506041709 | 16 | 229 | 3.2 | 11.3 | 0.00 | 0.69 | 0.69 | 56 | 1016.3 |